Flag for Ecuador Weather past 2 weeks in Guayaquil, Ecuador

Now
72 °F

Passing clouds.


Feels Like: 71 °F
Forecast: 71 / 85 °F
Wind: 5 mph from West

Location: Guayaquil / Simon Bolivar

Current Time: Aug 30, 2014 at 6:00:24 AM

Latest Report: Aug 30, 2014 at 5:00 AM


Visibility: N/A

Pressure: 29.89 "Hg

Humidity: 83%

Dew point: 66 °F

Location of GuayaquilLocation

Historic Weather in Guayaquil — Graph

°F

Guayaquil temperature yesterday

Maximum temperature yesterday: 82 °F (at 2:00 PM)
Minimum temperature yesterday: 70 °F (at 12:00 AM)
Average temperature yesterday: 74 °F

Past Weeks' High & Low Weather Summary

 TemperatureHumidityPressure
High100 °F (Aug 16, 6:00 PM)89% (Aug 15, 5:00 AM)29.95 "Hg (Aug 15, 5:00 AM)
Low68 °F (Aug 27, 5:00 AM)40% (Aug 16, 6:00 PM)29.74 "Hg (Aug 25, 3:00 PM)
Average76 °F74%29.86 "Hg
* Reported Aug 15 5:00 AM — Aug 30 5:00 AM, Guayaquil, Weather by CustomWeather, © 2014

Note: Actual official high and low records may vary slightly from our data, if they occured in-between our weather recording intervals... More about our weather records

Advertising

Guayaquil weather history for previous 24 hours

 ConditionsComfort  
Time TempWeatherWind HumidityBarometerVisibility
5:00 AM
Aug 30
72 °FPassing clouds.5 mph83%29.89 "HgN/A
4:00 AM72 °FPassing clouds.5 mph83%29.89 "HgN/A
3:00 AM72 °FPassing clouds.7 mph83%29.89 "HgN/A
2:00 AM72 °FPassing clouds.6 mph83%29.89 "HgN/A
1:00 AM70 °FPartly cloudy.12 mph83%29.89 "HgN/A
12:00 AM70 °FPassing clouds.13 mph83%29.92 "HgN/A
11:00 PM
Aug 29
70 °FClear.16 mph83%29.92 "Hg10 mi
10:00 PM72 °FClear.14 mph78%29.89 "Hg10 mi
9:00 PM72 °FPassing clouds.15 mph78%29.86 "HgN/A
8:00 PM73 °FPartly cloudy.15 mph74%29.86 "HgN/A
7:00 PM73 °FPartly cloudy.16 mph78%29.83 "HgN/A
6:00 PM77 °FBroken clouds.15 mph69%29.80 "HgN/A
5:00 PM81 °FBroken clouds.10 mph70%29.80 "HgN/A
4:00 PM82 °FBroken clouds.9 mph66%29.80 "HgN/A
2:00 PM82 °FBroken clouds.5 mph62%29.83 "HgN/A
1:00 PM79 °FBroken clouds.8 mph70%29.86 "HgN/A
12:00 PM79 °FBroken clouds.3 mph70%29.89 "HgN/A
11:00 AM79 °FBroken clouds.3 mph65%29.89 "HgN/A
10:00 AM75 °FMostly cloudy.8 mph74%29.92 "HgN/A
9:00 AM73 °FMostly cloudy.8 mph78%29.92 "HgN/A
8:00 AM72 °FMore clouds than sun.8 mph83%29.89 "HgN/A
7:00 AM72 °FBroken clouds.7 mph83%29.89 "HgN/A
6:00 AM72 °FPartly cloudy.6 mph83%29.86 "HgN/A
Weather by CustomWeather, © 2014

See weather overviewHow to use our weather pages